Regional Weather Roundup
Issued by NWS Pendleton, OR

Home | Current Version | Previous Version | Text Only | Print | Product List | Glossary On
Versions: 1 2 3 4 5 6 7 8 9 10 11 12 13 14 15 16 17 18 19 20 21 22 23 24 25 26 27 28 29 30 31 32 33 34 35 36 37 38 39 40 41 42 43 44 45 46 47 48 49 50
350
ASUS46 KPDT 251611
RWRPDT
PENDLETON REGIONAL WEATHER ROUNDUP
NATIONAL WEATHER SERVICE PENDLETON OREGON
800 AM PST SAT FEB 25 2017

NOTE: FAIR INDICATES FEW OR NO CLOUDS BELOW 12,000 FEET WITH NO
SIGNIFICANT WEATHER AND/OR OBSTRUCTIONS TO VISIBILITY.

# INDICATES UNOFFICIAL STATION AND DATA

WAZ520-251710-
EAST SLOPES OF WASHINGTON CASCADES

CITY            SKY/WX      TMP DP  RH  WIND    PRES   REMARKS
#CLE ELUM HS    N/A         15  10  80  CALM    30.11S
#CLE ELUM LAKE  N/A         21  15  77  CALM    30.21R
#GLENWOOD       N/A         16  14  92  CALM    30.30S
#MANASTASH CYN  N/A         16   9  73  S1      30.08S
#NELSON 3SW     N/A         18  16  92  CALM    30.49S
#NILE           N/A         12  10  91  CALM    29.54R
#TEANAWAY 4NE   N/A         11   8  87  CALM    N/A
#TROUT LAKE 1NE N/A         23  21  92  CALM    30.28S
#TROUT LAKE 1E  N/A         20  18  92  CALM    30.20S
$$

WAZ521-251710-
SIMCOE HIGHLANDS

CITY            SKY/WX      TMP DP  RH  WIND    PRES   REMARKS
#BICKLETON HS   N/A         27  19  71  W7      29.72S
#CENTERVILLE 1SWN/A         14  11  88  CALM    30.28S
#GOLDENDALE 1NE N/A         18  12  77  CALM    N/A
#GOLDENDALE 4W  N/A         N/A N/A N/A SW1     30.20F
#GOODNOE HILLS  N/A         28  20  71  W8      30.10S
#LYLE 6NE       N/A         24  21  88  N3      30.23S
#PITT 4SE       N/A         23  19  84  CALM    30.29S
$$

WAZ026-251710-
KITTITAS VALLEY

CITY            SKY/WX      TMP DP  RH  WIND    PRES   REMARKS
ELLENSBURG AP   SUNNY       16  11  80  CALM    30.17R
#ELLENSBURG CWU N/A         14  11  88  CALM    30.23R
#ELLENSBURG 3NE N/A         15  13  92  CALM    28.25S
#KITTITAS 4N    N/A         20  14  77  E3      30.17S
#KITTITAS 3S    N/A          5   2  87  CALM    30.30S
#THORP 6N       N/A         17  13  84  N2      30.29S
$$

WAZ027-251710-
YAKIMA VALLEY

CITY            SKY/WX      TMP DP  RH  WIND    PRES   REMARKS
SUNNYSIDE AP    SUNNY       22  21  96  CALM    30.23S
YAKIMA AIRPORT  SUNNY       21  15  77  NW5     30.21F
YAKIMA-VAGABOND SUNNY       20  16  84  CALM    30.18R
#DONALD 2NE     N/A         33   2  26  N2      29.04F
#GRANDVIEW      N/A         26  23  88  CALM    30.28S
#MABTON         N/A         21  19  92  CALM    30.23S
#MOXEE 2E       N/A         26   0  32  CALM    30.21F
#NACHES 2SW     N/A         24  18  77  W9      30.15F
#TERRACE HTS    N/A         18  16  92  CALM    30.24S
#TOPPENISH      N/A         25  21  84  CALM    30.17F
#WEST VALLEY    N/A         19  15  84  CALM    30.26S
#W YAKIMA       N/A         25  17  71  CALM    30.27F
#WHITE SWAN 5E  N/A         17  15  92  CALM    30.28R
#WILEY CITY 3W  N/A         19  11  70  CALM    30.16S
$$

WAZ028-251710-
LOWER COLUMBIA BASIN...WASHINGTON

CITY            SKY/WX      TMP DP  RH  WIND    PRES   REMARKS
HANFORD         SUNNY       26  23  88  SE2     30.19
PASCO           SUNNY       27  23  85  CALM    30.25S
PROSSER AWOS    N/A         27  27  100 CALM    30.26S
RICHLAND AWOS   SUNNY       29  26  88  CALM    30.25S
#BENTON CITY    N/A         28  24  85  CALM    30.17S
#CONNELL 5N     N/A         25  22  88  SW2     30.25S
#CONNELL 5NW    N/A         22  19  88  CALM    30.22R
#ELTOPIA 6NW    N/A         26  23  88  CALM    29.17S
#KAHLOTUS       N/A         24  23  96  NW2     30.24R
#KENNEWICK 3S   N/A         26  22  85  CALM    30.27S
#PATERSON       N/A         28  26  92  CALM    30.25S
#TOUCHET 2S     N/A         23  21  92  CALM    30.26R
#WEST PASCO     N/A         24  20  84  CALM    30.26R
$$

WAZ029-251710-
FOOTHILLS OF THE BLUES...WASHINGTON

CITY            SKY/WX      TMP DP  RH  WIND    PRES   REMARKS
WALLA WALLA AP  CLOUDY      28  25  88  S7      30.20R
#CLYDE 6NW      N/A         23  21  92  CALM    30.24R
#DAYTON SCHOOL  N/A         24  15  68  CALM    30.19S
#LOWDEN 2SE     N/A         23  22  96  CALM    30.21S
#PLEASANT VIEW 1N/A         27  23  85  SW5     30.28R
#PRESCOTT       N/A         26  24  92  CALM    30.25R
#WHITMAN COLLEGEN/A         27  24  88  S1      30.30S
#WAITSBURG 5S   N/A         25  22  88  CALM    30.35R
#WALLA WALLA 5E N/A         29  27  92  CALM    N/A
#WALLA WALLA U  N/A         27  25  92  CALM    30.27R
#WHITMAN MISSIONN/A         26  24  92  CALM    30.28R
$$

WAZ030-251710-
BLUE MOUNTAINS...WASHINGTON

CITY            SKY/WX      TMP DP  RH  WIND    PRES   REMARKS
#DIXIE 5SE      N/A         26  19  74  S2      30.02R
#SKI BLUEWOOD   N/A         16  13  88  SW1     30.00S
$$

ORZ009-041-WAZ024-251710-
COLUMBIA RIVER GORGE

CITY            SKY/WX      TMP DP  RH  WIND    PRES   REMARKS
HOOD RIVER AP   CLOUDY      30  25  81  CALM    30.26S
THE DALLES AP   PTCLDY      28  23  81  CALM    30.28R
#ARLINGTON AIRPON/A         29  25  85  CALM    30.27S
#ARLINGTON HS   N/A         30  25  81  NW1     30.20S
#CELILO DOT     N/A         29  22  75  CALM    N/A
#LYLE           N/A         29  24  81  NE3     30.29S
#MOSIER 1S      N/A         27  21  78  CALM    30.21S
#MURDOCK        N/A         30  26  85  CALM    30.29R
#RUFUS DOT      N/A         28  25  88  S6      N/A
#SMITHVILLE     N/A         29  26  88  CALM    30.24R

$$

ORZ510-251710-
NORTH CENTRAL OREGON

CITY            SKY/WX      TMP DP  RH  WIND    PRES   REMARKS
#CHENOWITH 1W   N/A         26  22  85  NW5     N/A
#COW CYN RST AREN/A         25  23  92  S2      N/A
#DUFUR 9E       N/A         29  22  75  SW2     30.29
#GRASS VALLEY 1SN/A         24  22  92  S1      30.29R
#KENT DOT       N/A         23  18  81  N5      N/A
#MAUPIN SCHOOL  N/A         26  22  85  CALM    30.27R
#MORO SCHOOL    N/A         24  23  96  S1      30.24S
#SHANIKO 5WSW   N/A         24  18  77  N7      N/A
#SHANIKO 4NW    N/A         24  21  88  CALM    30.09R
#TYGH VALLEY 2NEN/A         24  21  88  CALM    30.28R
#WAPANITIA AIRPON/A         24  20  84  W1      30.29R
#WASCO DOT      N/A         20  18  92  SE1     N/A
#WASCO AIRPORT  N/A         25  20  81  CALM    N/A
#WASCO 5NE      N/A         24  21  88  CALM    30.27S
$$

ORZ511-251710-
CENTRAL OREGON

CITY            SKY/WX      TMP DP  RH  WIND    PRES   REMARKS
BEND AIRPORT    CLOUDY      27  21  78  S6      30.13S
PRINEVILLE AP   CLOUDY      27  25  92  CALM    30.14R
REDMOND AIRPORT MOCLDY      26  21  81  SE3     30.14S
#ASHWOOD SCHOOL N/A         25  22  88  CALM    30.12R
#BEND 1SW       N/A         25  21  84  CALM    N/A
#BEND-AWBREY    N/A         26  21  81  SW5     30.26S
#BEND-KIM LN    N/A         24  20  84  CALM    30.21R
#CULVER         N/A         27  23  85  CALM    30.21R
#CULVER 8W      N/A         31  18  58  SE2     30.13R
#LAKE BILLY CHINN/A         23  N/A N/A CALM    30.29R
#POWELL BUTTE   N/A         25  20  81  CALM    30.07R
#WARM SPRINGS   N/A         23  20  88  CALM    30.17R

$$


ORZ509-251710-
EAST SLOPES OF OREGON CASCADES

CITY            SKY/WX      TMP DP  RH  WIND    PRES   REMARKS
SISTERS AWOS    N/A         19  18  96  CALM    30.09R
#BLUE BOX PASS  N/A         21  N/A N/A S2      N/A
#CAMP SHERMAN   N/A         20  17  88  CALM    30.36R
#LA PINE 4NW    N/A         16  12  84  CALM    30.36S
#LAVA BUTTE DOT N/A         21  19  92  CALM    N/A
#SISTERS ODOT   N/A         20  N/A N/A CALM    N/A
#SISTERS 1NW    N/A         22  19  88  N1      N/A
#SISTERS 3N     N/A         19  12  74  CALM    30.11S
#SUNRIVER       N/A         20  17  88  CALM    30.31S
#TUMALO 3W      N/A         24  19  81  NW3     30.15R
#WANOGA BUTTE D N/A         13  11  91  W5      N/A

$$

ORZ044-251710-
LOWER COLUMBIA BASIN...OREGON

CITY            SKY/WX      TMP DP  RH  WIND    PRES   REMARKS
HERMISTON       CLOUDY      28  27  96  CALM    30.23S
#BOARDMAN SCHOOLN/A         29  27  92  CALM    30.25F
#BOARDMAN 8SW   N/A         30  27  88  N3      30.25S
#ECHO 8SW       N/A         29  29  100 CALM    30.24S
#I-84 EX 198 DOTN/A         29  25  85  N2      N/A
#IONE SCHOOL    N/A         24  11  57  CALM    30.29S
#UMATILLA       N/A         27  22  81  CALM    30.21R
$$

ORZ507-251710-
NORTHERN FOOTHILLS OF THE BLUES

CITY            SKY/WX      TMP DP  RH  WIND    PRES   REMARKS
PENDLETON AIRPT CLOUDY      25  23  92  S3      30.18S
#ADAMS 3WNW     N/A         25  22  88  CALM    30.26R
#ATHENA         N/A         24  22  92  CALM    30.28R
#CAYUSE         N/A         25  22  88  CALM    30.24
#HELIX SCHOOL   N/A         25  23  92  CALM    30.26R
#HELIX 3N       N/A         27  23  85  N1      30.12S
#HOLDMAN 5SE    N/A         26  24  92  CALM    30.18R
#HOLDMAN 6E     N/A         26  24  92  CALM    30.05R
#M-F FERNDALE   N/A         25  21  84  CALM    30.19S
#M-F GROVE ELEM N/A         28  23  81  CALM    30.18R
#M-FREEWATER 5SEN/A         27  24  88  CALM    30.18S
#PENDLETON DNTN N/A         24  16  71  CALM    30.22R
#PDT AQUATIC CTRN/A         23  19  84  CALM    30.19S
#PDT SUNRIDGE   N/A         22  20  92  CALM    30.23R
#PENDLETON 7NW  N/A         25  21  84  CALM    31.21S
#PILOT ROCK 1S  N/A         24  16  71  CALM    30.18R
#PILOT ROCK     N/A         26  20  78  SW1     30.18S
#TUTUILLA       N/A         24  22  92  CALM    30.25R
#UMAPINE 2E     N/A         28  26  92  CALM    30.20R
#WESTON SCHOOL  N/A         27  19  71  CALM    30.08R

$$

ORZ508-251710-
SOUTHERN FOOTHILLS OF THE BLUES

CITY            SKY/WX      TMP DP  RH  WIND    PRES   REMARKS
LEXINGTON       CLOUDY      28  23  81  SE6     30.22R
#AJAX           N/A         25  15  65  CALM    30.29S
#CONDON SCHOOL  N/A         24  22  92  SW2     30.08R
#CONDON 5W      N/A         24  19  81  SW7     30.07R
#HEPPNER EOC    N/A         25  19  78  E2      30.19R
#HEPPNER 4NE    N/A         25  20  81  CALM    30.25R
#LEXINGTON 2SE  N/A         27  21  78  SE6     30.17R
#MIKKALO        N/A         29  24  81  E1      30.29S
#OLEX 4N        N/A         29  26  88  S6      30.19S
#RUGGS 5NE      N/A         24  20  84  SW1     30.27R
#RUGGS 2SW      N/A         25  18  74  SW1     30.28R

$$

ORZ502-503-251710-
BLUE MOUNTAINS

CITY            SKY/WX      TMP DP  RH  WIND    PRES   REMARKS
MEACHAM         CLOUDY       8   3  79  CALM    30.07F
#BATTLE MTN DOT N/A         15  12  88  S3      N/A
#GREENHORN 9SW  N/A          4   2  91  CALM    30.12S
#HEPPNER 15SE   N/A         18  15  88  CALM    30.32R
#LADD CYN SMT   N/A         21  15  77  SE12    N/A    WCI  9
#LADD CREEK ODOTN/A         20  13  74  W3      N/A
#LONG CREEK HS  N/A         20  19  96  CALM    N/A
#N POWDER DOT   N/A         18  14  84  W2      N/A
#PIKES PEAK     N/A         24  18  77  NW5     27.99S
#TOLLGATE       N/A         20  18  92  CALM    29.87R
#TROY SCHOOL    N/A         24  19  81  CALM    30.12R
#UKIAH          N/A         15  13  92  CALM    30.24R
#WESTON 4E      N/A         24  19  81  SE2     30.22S
$$

ORZ505-251710-
JOHN DAY BASIN

CITY            SKY/WX      TMP DP  RH  WIND    PRES   REMARKS
JOHN DAY        MOCLDY      24  13  62  CALM    30.12R
#JOHN DAY KJDY  N/A         18  N/A N/A E1      30.74F
#ANTELOPE 9ESE  N/A         29  24  81  CALM    N/A
#DAYVILLE SCHOOLN/A         24  16  71  E2      30.14R
#MITCHELL       N/A         23  17  77  E2      30.30R
#MITCHELL 8NW   N/A         27  17  65  SW1     30.08R
#MONUMENT HS    N/A         21  16  81  CALM    30.15R
#MT. VERNON 5SE N/A         23  15  71  CALM    30.05R
#SPRAY SCHOOL   N/A         24  N/A N/A CALM    N/A
#WINLOCK        N/A         26  19  74  CALM    30.09R
$$

ORZ506-251710-
OCHOCO AND JOHN DAY HIGHLANDS

CITY            SKY/WX      TMP DP  RH  WIND    PRES   REMARKS
#HORSE RIDGE DO N/A         19  15  84  CALM    N/A
#PAULINA SCHOOL N/A         20  13  74  CALM    N/A
#PINE MTN OBS   N/A         18  16  92  SE3     N/A
#SENECA         N/A          3  N/A N/A CALM    N/A
#SENECA 9NW     N/A          0  -3  87  CALM    30.37R
$$

ORZ049-251710-
GRANDE RONDE VALLEY

CITY            SKY/WX      TMP DP  RH  WIND    PRES   REMARKS
LA GRANDE       PTCLDY      25  18  74  CALM    30.13R
#COVE           N/A         23  21  92  CALM    30.15R
#COVE SCHOOL    N/A         24  20  84  CALM    30.13R
#COVE 6NW       N/A         21  17  84  CALM    30.28R
#ELGIN 3N       N/A         21  12  68  CALM    30.10R
#ELGIN 1E       N/A         22  18  84  CALM    N/A
#IMBLER SCHOOL  N/A         22  19  88  CALM    30.09S
#ISLAND CITY 4N N/A         30  29  96  CALM    30.27S
#UNION 1S       N/A         26  18  71  S5      30.27R
$$

ORZ050-251710-
WALLOWA COUNTY

CITY            SKY/WX      TMP DP  RH  WIND    PRES   REMARKS
JOSEPH AIRPORT  CLOUDY      19  14  80  CALM    30.07R
#IMNAHA SCHOOL  N/A         29  18  63  SE3     30.16R
#IMNAHA 10S     N/A         29  19  66  CALM    30.11S
#JOSEPH 3N      N/A         19  11  70  CALM    30.08R
#JOSEPH 3W      N/A         22  10  59  CALM    29.87R
#LOSTINE        N/A         19  16  88  CALM    30.08R
#LOSTINE 3SE    N/A         20  16  84  CALM    30.13R
#MT HOWARD 8000 N/A          8   5  87  W6      29.78S
#PROMISE 1S     N/A         22  15  74  E2      30.36R
#WALLOWA SCHOOL N/A         19  17  92  CALM    30.10R



$$



USA.gov is the U.S. government's official web portal to all federal, state and local government web resources and services.